Torna al catalogo

AMC-9

GE-12

AttivoComunicazioniGEO
NORAD 27820·PAYLOAD·🇱🇺 Luxembourg

Lanciato Jun 6, 2003 da Baikonur Cosmodrome

Loading…

TLE

AggiornatoSource: Space-Track

Epoca: Sep 14, 2026, 12:49 UTC

1 27820U 03024A   26257.53452894 -.00000270  00000-0  00000-0 0  9990
2 27820   8.1370  64.6967 0014167   0.9585 279.1316  0.99035611 84874

Traccia AMC-9 in tempo reale con AllMySat

Download on the App Store